Temperature
17 18 18 18 18 18 18 18 18 18 18 17 17 17 17 17 17 17 17 17 17 17 17 18 18 18 18 18 18 18 18 18 18 18 18 18 18 18 18 18 18 18 18
17 17 17 17 17 17 17 17 17 17 17 17 17 17 17 17 17 17 17 17 17 17 17 17 18 18 18 18 18 18 18 18 18 18 18 18 18 18 18 18 18 18 18
17 17 17 17 17 17 17 17 17 17 17 17 17 17 17 17 17 17 17 17 17 17 17 17 17 17 17 18 18 18 18 18 18 17 17 17 18 18 18 18 18 18 18
17 17 17 17 17 17 17 17 17 17 17 17 17 17 16 16 16 16 16 17 16 17 17 17 17 17 17 17 17 18 18 18 17 17 17 17 17 18 18 18 18 18 18
17 17 17 17 17 17 17 17 17 17 17 17 16 16 16 16 16 16 16 16 16 16 16 17 17 17 17 17 17 17 18 17 17 17 17 17 17 18 18 18 18 18 18
17 17 17 17 17 17 17 17 16 16 16 16 16 16 16 16 16 16 16 16 16 16 16 16 16 16 17 17 17 17 17 17 17 17 17 17 17 17 18 18 18 18 18
17 17 17 17 17 17 17 16 16 16 16 16 16 16 16 16 16 16 16 16 16 16 16 16 16 16 17 17 17 17 17 17 17 17 17 17 17 17 17 18 18 18 18
17 17 17 17 17 17 17 17 16 16 16 16 16 16 16 16 16 16 16 16 16 16 16 16 16 16 17 17 17 17 17 17 17 17 17 17 17 17 17 17 17 18 18
18 17 17 17 17 17 17 17 17 16 16 16 16 16 16 16 16 16 16 16 16 16 16 16 16 17 17 17 17 17 17 17 17 17 17 17 17 17 17 17 17 17 17
18 18 18 17 17 17 17 17 17 17 16 16 16 16 16 16 16 16 16 16 16 16 16 16 16 17 17 17 17 17 17 17 17 17 17 17 17 17 17 17 17 17 17
18 18 18 18 17 17 17 17 17 17 17 16 16 16 16 16 16 16 16 16 16 16 16 16 16 17 17 17 17 17 17 17 17 17 17 17 17 17 17 17 17 17 17
18 19 18 18 18 18 17 17 17 17 17 17 17 16 16 16 16 16 16 16 16 16 16 16 16 17 17 17 17 17 17 17 17 17 17 17 17 17 17 17 17 17 17
19 19 19 19 18 18 17 17 17 17 17 17 17 17 17 17 16 16 16 16 16 16 16 16 17 17 17 17 17 17 17 17 17 16 16 16 16 16 16 16 17 17 17
19 19 19 19 19 18 18 17 17 17 17 17 17 17 17 17 17 17 16 16 16 16 16 16 17 17 17 17 17 17 17 17 16 16 16 16 16 16 16 16 16 16 17
19 19 19 19 18 18 18 18 17 17 17 17 17 17 17 17 17 17 16 16 16 16 16 16 16 16 16 16 16 16 16 16 16 16 16 16 16 16 16 16 16 16 16
19 19 19 19 18 18 18 18 17 17 17 17 17 17 17 17 17 17 16 16 16 16 16 16 16 16 16 16 16 16 16 16 16 16 16 16 16 16 16 16 16 16 16
19 19 18 18 18 18 18 17 17 17 17 17 17 17 17 17 17 16 16 16 16 16 16 16 16 16 16 16 16 16 16 16 16 16 16 15 15 15 15 15 15 16 16
19 19 18 18 18 17 17 17 17 17 17 17 16 16 17 17 17 16 16 16 16 16 16 16 16 16 16 16 16 16 16 16 16 16 15 15 15 15 15 15 15 15 15
19 19 18 18 18 17 17 17 17 17 17 16 16 16 16 16 16 16 16 16 16 16 16 16 16 16 16 16 16 16 16 16 16 15 15 15 15 15 15 15 15 15 15
19 19 18 18 18 17 17 17 17 17 17 16 16 16 16 16 16 16 16 16 16 16 16 16 16 15 15 16 16 16 16 16 15 15 15 15 15 14 14 14 14 14 15
19 19 18 18 18 17 17 17 17 17 16 16 16 16 16 16 16 16 16 16 16 16 16 16 16 15 15 15 16 16 16 16 15 15 15 15 14 14 14 14 14 14 14
20 19 19 18 18 18 17 17 17 17 16 16 16 16 16 16 16 16 16 16 16 16 16 16 15 15 15 15 15 16 15 15 15 15 15 15 14 14 14 14 14 14 14
20 19 19 19 18 18 17 17 17 17 17 16 16 16 16 16 16 16 16 16 16 15 15 15 15 15 15 15 15 15 15 15 15 15 15 15 14 14 14 14 14 14 14
20 19 19 19 18 18 18 17 17 17 17 16 16 16 16 16 16 16 16 16 16 15 15 15 15 15 15 15 15 15 15 15 15 15 15 15 14 14 14 14 14 14 14
20 19 19 19 18 18 18 18 17 17 17 17 16 16 16 16 16 16 16 16 15 15 15 15 15 15 15 15 15 15 15 15 15 15 14 14 14 14 14 13 13 13 13
20 19 19 19 18 18 18 18 17 17 17 17 16 16 16 16 16 16 16 16 15 15 15 15 15 15 15 15 15 14 14 14 14 14 14 14 14 14 14 13 13 13 13
Wind_Speed
8 11 12 13 13 14 14 14 14 14 13 13 13 13 13 13 13 13 13 13 12 12 11 11 11 11 10 9 9 9 9 8 7 7 8 10 10 11 11 12 10 9 10
10 13 13 14 14 14 14 14 14 14 14 13 13 13 13 12 12 12 12 12 12 11 11 11 11 10 10 9 8 8 7 7 6 5 6 8 10 11 11 12 13 10 10
12 13 14 14 14 15 14 14 14 14 14 14 13 13 13 12 12 12 12 12 12 11 11 11 11 10 10 9 8 7 6 6 5 4 3 5 9 12 12 12 12 12 11
13 14 14 14 14 15 15 14 14 14 14 13 13 12 12 12 11 11 11 11 11 11 11 10 10 10 10 9 8 7 6 6 6 5 6 9 10 12 12 12 12 12 12
14 15 14 15 15 15 15 14 14 14 13 13 13 12 12 11 11 11 11 10 10 10 10 10 10 9 9 8 8 7 6 6 7 5 10 12 11 11 12 12 12 12 12
13 15 13 14 15 15 14 13 13 13 12 12 12 12 11 11 11 11 10 10 10 10 9 9 9 9 9 8 7 7 7 8 6 7 10 11 10 11 12 11 11 11 12
13 14 14 14 14 14 13 12 12 12 11 11 11 10 10 10 11 10 10 10 10 9 9 9 9 9 8 8 7 7 8 9 3 6 11 12 11 11 11 11 11 11 11
12 13 14 14 14 13 12 11 11 10 10 9 8 8 7 8 9 9 9 9 9 9 8 8 8 7 7 6 6 6 7 8 6 8 12 12 11 11 11 11 11 10 10
10 11 13 14 13 13 12 10 9 8 7 6 5 4 4 6 7 8 9 9 8 8 7 6 6 6 5 4 3 4 6 8 6 6 11 11 11 10 10 10 10 10 10
7 6 8 11 13 13 12 9 8 7 5 4 3 2 2 3 5 8 8 7 6 6 5 4 3 2 2 1 1 3 4 5 4 9 11 11 11 10 10 10 10 10 10
6 5 6 7 9 11 12 10 9 7 4 4 4 4 3 3 5 7 7 5 4 3 1 0 1 2 2 3 3 3 4 1 6 10 11 11 11 10 10 10 9 9 9
6 6 6 5 6 7 8 7 5 5 3 2 3 3 2 4 5 6 7 4 3 2 2 4 5 5 6 4 4 3 1 5 6 10 10 12 11 10 10 9 9 9 9
6 6 6 6 6 7 5 6 5 4 3 5 5 6 6 5 3 5 5 5 4 4 3 3 4 4 2 1 1 1 4 6 8 10 11 12 11 10 10 9 9 9 9
7 5 5 6 6 7 6 4 4 4 5 5 7 7 6 3 3 3 3 2 2 2 2 3 2 4 5 5 4 4 6 6 8 10 10 11 10 10 10 10 10 9 9
7 5 6 5 7 7 4 3 6 5 4 5 6 7 6 3 2 3 3 4 4 4 3 3 4 5 5 6 7 7 5 7 9 10 10 10 10 9 9 10 10 11 11
7 7 6 5 5 5 4 3 4 5 5 6 6 6 6 5 4 3 3 3 4 4 4 3 4 3 3 3 4 5 5 6 7 8 9 9 9 9 9 10 10 11 11
8 8 6 5 5 6 5 5 5 5 6 6 7 9 7 6 7 6 3 3 4 6 7 6 5 4 3 3 3 4 4 5 5 5 7 8 8 8 8 9 9 10 11
8 8 6 5 7 6 5 4 4 6 6 6 8 9 10 10 10 7 3 3 6 7 5 3 4 4 4 4 4 4 3 3 4 5 6 7 6 7 7 8 9 10 12
8 9 6 5 6 5 4 4 5 6 5 7 8 8 10 11 11 7 4 4 7 5 3 4 5 4 3 3 2 2 3 4 4 6 6 7 7 7 7 7 8 10 12
8 9 8 6 6 4 2 4 4 4 3 6 6 7 9 10 11 8 5 7 7 4 4 4 4 3 3 3 3 3 2 3 4 5 5 7 8 9 8 7 6 8 11
7 8 8 7 6 4 2 3 3 2 2 3 4 7 7 8 8 6 5 5 5 4 4 5 4 3 3 3 2 2 2 4 4 4 4 4 6 9 9 9 8 7 8
7 7 7 7 6 6 3 2 3 3 3 3 4 5 7 8 9 6 5 3 3 4 5 5 4 3 3 3 2 1 1 3 3 3 3 4 5 6 7 9 10 10 10
7 7 7 7 7 7 5 3 3 3 2 3 3 2 3 6 6 7 6 4 3 4 3 3 4 4 3 3 3 3 2 1 1 2 3 4 4 4 4 7 10 11 12
8 7 7 7 7 7 6 4 4 3 3 3 3 2 3 4 4 5 5 5 4 4 3 3 4 3 3 3 2 2 2 2 1 1 2 3 3 4 4 5 7 9 11
8 7 6 7 7 7 6 4 1 2 3 3 3 3 3 3 3 3 4 4 4 3 4 4 4 4 3 3 3 2 3 2 2 1 1 1 2 2 3 3 4 6 8
8 7 6 7 6 6 6 6 4 3 3 4 3 2 2 3 2 2 2 2 3 3 3 3 2 3 3 4 3 3 3 2 2 2 1 1 1 1 1 2 3 3 5
Wind_Direction
87 82 80 82 83 82 82 82 81 80 77 74 74 72 70 70 69 69 67 65 63 61 58 55 52 47 46 49 53 53 53 53 56 64 66 62 57 52 47 46 48 57 55
98 90 85 85 85 84 82 83 81 79 77 75 74 71 70 71 70 69 66 64 62 60 57 55 50 46 46 48 55 54 49 44 44 51 64 67 63 55 51 52 52 54 54
98 96 90 88 87 85 83 83 81 79 77 74 74 72 70 68 68 67 66 63 63 61 57 53 48 47 47 47 49 49 43 29 16 15 19 80 73 59 54 55 53 52 54
94 89 89 90 88 85 83 82 81 79 76 73 72 72 70 67 67 66 65 63 61 59 56 51 48 48 47 46 45 42 33 10 356 9 59 68 67 63 58 56 53 53 53
93 90 89 91 89 85 82 81 81 79 76 73 71 69 67 66 65 66 64 61 60 59 56 52 51 49 47 45 41 34 19 357 349 40 75 77 70 66 62 57 54 52 52
100 96 92 92 91 87 84 80 80 78 74 71 69 67 66 66 65 64 60 58 59 58 55 52 51 50 48 46 40 27 7 351 358 63 84 81 74 68 63 58 56 54 53
106 106 105 101 97 92 87 82 80 77 75 71 68 66 65 65 63 62 60 59 59 58 56 54 53 50 49 46 35 19 359 347 25 77 86 82 76 70 65 60 56 53 52
112 115 117 114 108 99 91 84 80 77 74 71 70 69 68 71 71 68 62 59 61 58 56 55 54 51 50 45 32 14 356 352 37 69 85 80 77 71 65 60 56 53 52
112 125 134 133 123 111 101 94 90 87 85 85 85 85 90 94 89 81 70 62 61 59 55 55 57 54 53 46 28 2 348 357 17 49 78 76 73 69 65 59 55 54 52
119 123 129 133 136 132 123 118 121 118 121 127 139 157 155 148 123 97 84 75 66 62 59 56 54 50 47 22 336 326 330 343 40 65 76 78 73 67 63 59 54 52 50
124 134 130 129 129 131 131 138 155 152 161 186 207 223 215 170 141 113 99 106 92 78 68 3 297 272 254 248 254 280 308 331 85 80 74 76 71 63 57 55 52 50 48
135 126 125 127 121 106 101 122 131 117 130 122 68 72 68 79 84 103 132 146 165 195 247 258 262 257 246 230 229 261 339 65 81 91 79 76 69 61 56 53 51 47 44
116 110 118 112 107 109 100 101 92 92 72 48 41 64 47 41 83 118 157 178 204 208 252 270 270 271 230 131 103 90 73 66 74 87 86 79 70 62 56 52 49 46 41
107 102 101 108 103 91 89 101 89 69 64 45 22 48 52 25 37 55 65 44 68 66 355 338 347 25 26 34 39 56 70 82 87 97 93 87 77 65 57 51 48 43 39
118 111 85 78 89 93 86 80 85 62 57 70 21 39 47 28 38 52 62 31 37 34 25 17 27 41 27 24 31 43 48 73 89 96 103 96 86 73 61 52 47 42 38
132 116 105 96 92 105 103 87 82 96 75 57 17 37 50 42 47 47 60 40 36 35 30 37 40 39 42 40 30 42 37 55 87 110 119 109 96 83 69 58 49 43 36
129 121 108 103 85 72 67 64 77 69 74 58 25 16 33 45 50 43 35 38 23 30 37 36 41 25 44 44 39 54 48 47 67 95 113 117 108 93 80 64 54 45 36
123 114 109 105 96 82 72 58 69 62 57 60 43 20 19 37 58 47 25 29 35 34 31 35 42 31 35 38 29 37 48 44 50 61 83 98 105 103 95 78 62 50 40
129 125 126 111 104 103 112 99 72 74 56 61 52 29 19 25 44 53 22 25 39 35 22 33 35 30 30 33 45 51 48 43 31 49 54 62 66 89 102 91 75 58 47
138 132 125 115 118 126 117 96 81 65 64 68 65 43 28 27 31 36 35 36 37 38 26 34 36 25 20 14 43 54 65 73 54 40 39 52 51 54 67 76 80 65 54
147 137 135 142 141 128 103 103 111 103 88 71 70 51 40 38 26 34 41 44 38 46 37 39 31 19 24 16 43 33 36 68 78 67 47 41 45 41 45 49 54 60 59
152 145 146 147 134 120 114 124 116 104 99 88 67 54 45 44 25 28 46 56 55 57 39 30 33 17 7 18 33 34 41 30 20 78 73 56 43 38 35 38 39 48 49
156 153 150 145 138 138 141 104 96 90 100 114 110 87 57 58 39 19 28 40 46 68 56 36 39 37 7 0 42 47 54 55 334 18 63 72 55 36 33 37 42 44 44
165 160 157 155 149 143 141 148 164 159 141 128 126 130 111 77 57 28 28 26 43 66 56 32 45 22 31 358 359 30 51 86 76 357 4 51 61 53 39 40 42 48 49
160 159 159 152 142 138 138 139 165 131 137 120 113 125 123 107 88 61 32 30 36 56 65 52 43 27 33 24 7 11 15 18 5 79 347 343 31 49 54 46 55 53 53
148 152 153 143 135 140 156 161 166 146 140 134 139 140 151 144 119 96 65 43 51 53 56 50 50 50 43 25 13 24 32 29 360 22 5 355 24 349 44 54 60 62 66
Height
1534 1533 1534 1534 1534 1535 1535 1536 1536 1537 1537 1537 1537 1538 1538 1538 1538 1538 1538 1539 1539 1539 1539 1539 1539 1539 1539 1539 1540 1540 1541 1541 1542 1542 1542 1542 1542 1542 1542 1542 1542 1541 1541
1535 1535 1535 1535 1536 1536 1537 1537 1538 1538 1538 1538 1538 1539 1539 1539 1539 1539 1539 1539 1540 1540 1540 1540 1540 1540 1540 1540 1540 1541 1542 1542 1543 1543 1543 1544 1544 1543 1543 1543 1542 1542 1542
1536 1536 1536 1536 1537 1538 1538 1539 1539 1539 1539 1540 1540 1540 1540 1540 1540 1540 1540 1540 1541 1541 1541 1541 1541 1541 1541 1541 1542 1542 1543 1543 1544 1545 1545 1545 1545 1545 1544 1544 1543 1543 1543
1537 1537 1538 1538 1539 1539 1540 1540 1540 1541 1541 1541 1541 1541 1541 1541 1541 1541 1541 1541 1541 1541 1541 1542 1542 1542 1542 1542 1543 1543 1544 1545 1545 1546 1546 1546 1546 1546 1545 1545 1545 1544 1544
1538 1539 1539 1540 1540 1541 1541 1542 1542 1542 1542 1542 1542 1542 1542 1542 1542 1542 1542 1542 1542 1542 1542 1542 1542 1543 1543 1543 1544 1544 1545 1546 1546 1547 1547 1547 1547 1547 1547 1546 1546 1545 1545
1540 1540 1541 1541 1542 1542 1543 1543 1543 1544 1544 1544 1543 1543 1543 1543 1543 1543 1543 1543 1543 1543 1543 1543 1543 1543 1544 1544 1545 1545 1546 1547 1548 1548 1548 1548 1548 1548 1548 1547 1547 1546 1546
1542 1542 1543 1543 1544 1544 1545 1545 1545 1545 1545 1545 1545 1545 1545 1545 1544 1544 1544 1544 1544 1544 1544 1544 1544 1544 1545 1545 1545 1546 1547 1548 1549 1549 1549 1549 1549 1549 1548 1548 1548 1547 1547
1544 1544 1544 1545 1546 1546 1546 1547 1547 1547 1547 1547 1547 1547 1546 1546 1546 1546 1545 1545 1545 1545 1545 1545 1545 1545 1546 1546 1546 1547 1548 1548 1550 1550 1549 1549 1550 1550 1549 1549 1549 1548 1548
1546 1546 1546 1547 1547 1548 1548 1549 1549 1549 1549 1549 1549 1549 1548 1548 1548 1547 1547 1547 1546 1546 1546 1546 1546 1547 1547 1547 1547 1548 1549 1549 1550 1551 1550 1550 1550 1550 1550 1550 1550 1549 1549
1548 1548 1549 1549 1549 1550 1550 1550 1550 1550 1551 1551 1551 1550 1550 1550 1549 1549 1549 1548 1548 1548 1548 1548 1548 1548 1548 1549 1549 1549 1550 1550 1551 1551 1551 1551 1551 1551 1551 1551 1550 1550 1550
1549 1550 1551 1552 1552 1552 1552 1552 1552 1552 1552 1552 1552 1552 1552 1552 1552 1552 1551 1550 1550 1550 1550 1550 1550 1550 1550 1550 1551 1551 1551 1551 1551 1552 1551 1552 1552 1551 1551 1551 1551 1551 1550
1551 1552 1553 1554 1554 1554 1554 1554 1554 1554 1554 1554 1554 1554 1554 1554 1554 1554 1553 1552 1552 1551 1551 1551 1551 1551 1551 1552 1552 1552 1552 1552 1552 1552 1552 1552 1552 1552 1552 1552 1551 1551 1551
1552 1553 1554 1555 1555 1555 1555 1556 1556 1556 1556 1556 1556 1556 1555 1555 1555 1554 1554 1553 1553 1553 1553 1553 1553 1553 1553 1553 1553 1553 1553 1553 1553 1553 1553 1553 1553 1552 1552 1552 1552 1551 1551
1553 1554 1555 1556 1556 1556 1557 1557 1557 1557 1557 1557 1557 1557 1556 1556 1556 1556 1555 1555 1555 1555 1554 1554 1554 1554 1554 1555 1555 1554 1554 1554 1554 1553 1554 1553 1553 1553 1552 1552 1552 1551 1551
1554 1555 1556 1557 1557 1557 1557 1558 1558 1558 1559 1558 1558 1558 1558 1557 1557 1557 1557 1556 1556 1556 1556 1555 1555 1555 1555 1555 1555 1555 1555 1555 1555 1555 1554 1554 1554 1553 1553 1552 1552 1551 1551
1555 1556 1557 1558 1558 1558 1559 1559 1560 1559 1560 1559 1559 1560 1559 1559 1559 1558 1558 1557 1557 1557 1556 1556 1556 1556 1556 1556 1556 1556 1556 1556 1556 1555 1555 1555 1554 1554 1553 1553 1552 1551 1550
1555 1556 1558 1559 1559 1559 1560 1561 1561 1561 1561 1561 1560 1560 1560 1560 1560 1559 1559 1558 1558 1558 1557 1557 1557 1557 1557 1557 1557 1557 1557 1557 1557 1557 1556 1556 1555 1555 1554 1553 1552 1551 1550
1556 1557 1558 1559 1560 1560 1561 1562 1562 1562 1562 1562 1561 1561 1561 1561 1560 1560 1560 1559 1559 1558 1558 1558 1558 1558 1558 1558 1558 1558 1559 1559 1559 1558 1558 1557 1557 1556 1555 1554 1553 1552 1550
1556 1557 1558 1560 1560 1561 1562 1563 1563 1563 1563 1563 1562 1562 1561 1561 1561 1561 1560 1560 1559 1559 1559 1558 1558 1558 1558 1559 1559 1559 1560 1560 1560 1559 1559 1558 1558 1557 1556 1555 1554 1552 1550
1556 1557 1558 1560 1561 1562 1563 1564 1564 1564 1564 1563 1563 1563 1562 1562 1562 1562 1561 1561 1560 1560 1559 1559 1559 1559 1560 1560 1560 1560 1560 1561 1561 1560 1560 1560 1559 1558 1557 1555 1554 1552 1551
1556 1557 1559 1560 1561 1562 1563 1564 1564 1564 1564 1564 1564 1563 1563 1563 1563 1562 1562 1562 1561 1561 1560 1560 1560 1560 1561 1561 1561 1561 1561 1562 1562 1561 1561 1560 1560 1559 1558 1557 1555 1553 1551
1555 1557 1558 1560 1561 1562 1563 1564 1565 1565 1565 1565 1564 1564 1564 1564 1563 1563 1563 1563 1562 1562 1561 1561 1561 1561 1562 1562 1562 1561 1562 1564 1563 1562 1562 1561 1560 1559 1558 1557 1556 1554 1552
1554 1556 1558 1560 1561 1562 1563 1564 1565 1565 1565 1565 1565 1565 1565 1564 1564 1564 1564 1563 1563 1563 1563 1562 1562 1562 1562 1562 1562 1563 1562 1563 1563 1563 1562 1561 1561 1560 1559 1557 1556 1554 1552
1553 1555 1557 1559 1560 1561 1562 1563 1564 1565 1565 1566 1565 1565 1565 1565 1565 1564 1564 1564 1564 1564 1563 1563 1563 1563 1563 1563 1563 1563 1564 1563 1563 1563 1563 1562 1561 1560 1559 1557 1556 1554 1552
1551 1554 1556 1558 1559 1560 1561 1563 1564 1565 1565 1566 1566 1566 1566 1565 1565 1565 1565 1564 1564 1564 1564 1563 1563 1563 1563 1563 1563 1563 1563 1563 1563 1563 1563 1562 1561 1560 1559 1557 1556 1554 1552
1549 1552 1555 1556 1558 1559 1561 1562 1563 1564 1565 1565 1566 1566 1566 1566 1566 1565 1565 1565 1565 1564 1564 1564 1564 1564 1563 1564 1564 1564 1564 1563 1563 1563 1562 1562 1561 1560 1559 1557 1556 1554 1552